GLOBALSTAR M065 [+]

Last updated on July 6, 2021, 3:36 p.m. UTC

1 31571U 07020A   21186.72932753 -.00000086  00000-0  99123-4 0  9995
2 31571  51.9919 297.4044 0001472 164.1578 343.1505 12.62266070651284
UTC
Height (km)
Latitude
Longitude
Inclination
Orbital Period
UTC large
Height (km)
Speed (km/s)
/
Latitude / Longitude
Inclination (degrees)
Orbital Period (minutes)
Azimuth
Elevation
Range (km)
Doppler Factor
iOS Compass Heading
iOS Angle